User: anonymous   Login
Location: Newark
(27.9675°N, 86.8869°E)
Time: 20:27:11
(UTC+00:00)
Language:

Transit 4A - Orbit

View from above orbital plane
View from above orbital plane
View from above satellite
View from above satellite

Ground track
Ground track

The orbit data is extracted from the following two-line orbital elements,

1   116U 61015A   19285.90495629 -.00000059 +00000-0 +13916-4 0  9999
2   116 066.8083 095.8034 0076754 188.0824 171.9025 13.91759760957239
Epoch (UTC): 12 October 2019 21:43:08
Eccentricity: 0.0076754
inclination: 66.8083°
perigee height: 866 km
apogee height: 978 km
right ascension of ascending node: 95.8034°
argument of perigee: 188.0824°
revolutions per day: 13.91759760
mean anomaly at epoch: 171.9025°
orbit number at epoch: 95723

The dashed part of the orbit path shows where the satellite is in the earth's shadow,  

DLR